Regional Weather Roundup
Issued by NWS

Home | Current Version | Previous Version | Text Only | Print | Product List | Glossary Off
Versions: 1 2 3 4 5 6 7 8 9 10 11 12 13 14 15 16 17 18 19 20 21 22 23 24 25 26 27 28 29 30 31 32 33 34 35 36 37 38 39 40 41 42 43 44 45 46 47 48 49 50

000
ASUS43 KFSD 022002
RWRSD

WEATHER ROUNDUP FOR SOUTH DAKOTA
NATIONAL WEATHER SERVICE SIOUX FALLS SD
200 PM CST FRI DEC 02 2016

NOTE: "FAIR" INDICATES FEW OR NO CLOUDS BELOW 12,000 FEET WITH NO
SIGNIFICANT WEATHER AND/OR OBSTRUCTIONS TO VISIBILITY.


SDZ001>005-009-010-012>017-022100-
NORTHWEST AND NORTH CENTRAL SOUTH DAKOTA

CITY           SKY/WX    TMP DP  RH WIND       PRES   REMARKS
BUFFALO          N/A     35  27  72 W10       30.10F WCI  27
FAITH            N/A     28  25  88 S8        30.19S WCI  20
MOBRIDGE       CLOUDY    30  23  75 E6        30.22F WCI  24
$$

SDZ012>016-024>037-041>051-057-063-072>074-022100-
SOUTHWEST AND SOUTH CENTRAL SOUTH DAKOTA

CITY           SKY/WX    TMP DP  RH WIND       PRES   REMARKS
RAPID CTY ARPT CLOUDY    38  25  59 N13       30.18F
PIERRE         CLOUDY    30  27  88 S6        30.24F WCI  24
CUSTER         CLOUDY    34  15  46 W12       30.12F WCI  25
ELLSWORTH AFB  CLOUDY    39  26  58 N10       30.18F
PHILIP         CLOUDY    32  26  78 CALM      30.23S
PINE RIDGE     SUNNY     37  29  72 CALM      30.20F
SPEARFISH      FAIR      36  23  60 CALM      30.18S
WINNER         CLOUDY    34  25  69 SW5       30.26S WCI  30
$$

SDZ004>011-016>023-039-040-022100-
NORTHEAST SOUTH DAKOTA

CITY           SKY/WX    TMP DP  RH WIND       PRES   REMARKS
ABERDEEN       FLURRIES  29  22  75 NW8       30.27S WCI  21
WATERTOWN      CLOUDY    25  20  81 N8        30.23S WCI  16
SISSETON         N/A     28  21  75 N10       30.26S WCI  19
$$

SDZ017-020-022-023-036>040-048>070-022100-
SOUTHEAST SOUTH DAKOTA

CITY           SKY/WX    TMP DP  RH WIND       PRES   REMARKS
SIOUX FALLS    CLOUDY    33  25  72 W10       30.26R WCI  25
HURON          CLOUDY    32  24  72 N5        30.28S WCI  27
CHAMBERLAIN    CLOUDY    33  30  91 SE3       30.27S
MITCHELL       CLOUDY    32  26  78 NW7       30.30R WCI  26
YANKTON        CLOUDY    36  25  64 NW9       30.28R
$$

ABBREVIATIONS USED IN REMARKS
   TC - TEMPERATURE IN CELSIUS
  WCI - WIND CHILL INDEX
   HX - HEAT INDEX
  VSB - VISIBILITY




USA.gov is the U.S. government's official web portal to all federal, state and local government web resources and services.